Location: Campestrin
(46.4667°N, 11.7167°E)
Time: 09:18:57
(UTC+00:00)

Exosat Rocket - Pass Details

Date: 18 April 2021
Orbit: 760 x 2515 km, 72.3° (Epoch: 06 May)

Event Time Altitude Azimuth Distance (km) Brightness Sun altitude
Rises 19:33:49 0° 334° (NNW) 4,177 8.4 -14.6°
Reaches altitude 10° 19:36:54 10° 333° (NNW) 2,977 7.5 -15.0°
Maximum altitude 19:43:29 78° 249° (WSW) 910 3.9 -15.9°
Enters shadow 19:47:18 19° 165° (SSE) 1,831 5.0 -16.4°
